Weather History for Hoonah, AK

Change the Weather History Date:

Wednesday, March 13, 2013

  Actual Average Record
Temperature  
Mean Temperature 25 °F -  
Max Temperature 28 °F 35 °F 46 °F (1998)
Min Temperature 22 °F 25 °F 8 °F (2006)
Degree Days  
Heating Degree Days 40    
Moisture  
Dew Point 11 °F    
Average Humidity 54    
Maximum Humidity 75    
Minimum Humidity 39    
Precipitation  
Precipitation 0.00 in - - ()
Sea Level Pressure  
Sea Level Pressure 29.95 in    
Wind  
Wind Speed 5 mph (East)    
Max Wind Speed 17 mph    
Max Gust Speed 24 mph    
Visibility 10 miles    
Events      
Averages and records for this station are not official NWS values.
T = Trace of Precipitation, MM = Missing Value Source: NWS Daily Summary

Daily Weather History Graph

Daily Weather History Graph

Search for Another Location

Airport:

Trip Planner

Search our weather history database for the weather conditions in past years. The results will help you decide how hot, cold, wet, or windy it might be!

Date:

Astronomy

Mar. 13, 2013 Rise Set
Actual Time 7:22 AM AKDT 7:01 PM AKDT
Civil Twilight 6:43 AM AKDT 7:40 PM AKDT
Nautical Twilight 5:57 AM AKDT 8:26 PM AKDT
Astronomical Twilight 5:08 AM AKDT 9:15 PM AKDT
Moon 7:32 AM AKDT (3/13) 10:07 PM AKDT (3/13)
Length of Visible Light 12h 57m
Length of Day
11h 39m
Waxing Crescent, 4% of the Moon is Illuminated
Mar 13
Waxing Crescent
Mar 19
First Quarter
Mar 27
Full
Apr 2
Last Quarter
Apr 10
New

Hourly Weather History & Observations

Time (AKDT) Temp. Windchill Dew Point Humidity Pressure Visibility Wind Dir Wind Speed Gust Speed Precip Events Conditions
12:56 AM 28.0 °F - 21.0 °F 75% 29.86 in 10.0 mi Calm Calm - N/A   Partly Cloudy
1:56 AM 27.1 °F 20.7 °F 15.1 °F 60% 29.87 in 10.0 mi South 5.8 mph - N/A   Mostly Cloudy
2:56 AM 27.1 °F 21.8 °F 11.1 °F 51% 29.88 in 10.0 mi East 4.6 mph - N/A   Partly Cloudy
3:56 AM 26.1 °F 21.9 °F 13.1 °F 58% 29.88 in 10.0 mi Variable 3.5 mph - N/A   Mostly Cloudy
4:56 AM 26.1 °F - 17.1 °F 69% 29.89 in 10.0 mi Calm Calm - N/A   Clear
5:56 AM 25.2 °F - 16.2 °F 69% 29.89 in 10.0 mi Calm Calm - N/A   Clear
6:56 AM 24.1 °F 19.7 °F 16.2 °F 72% 29.90 in 10.0 mi East 3.5 mph - N/A   Clear
7:56 AM 24.1 °F 18.2 °F 10.0 °F 55% 29.91 in 10.0 mi SSE 4.6 mph - N/A   Scattered Clouds
8:56 AM 26.1 °F - 12.0 °F 55% 29.92 in 10.0 mi Calm Calm - N/A   Clear
9:56 AM 27.1 °F 14.9 °F 7.2 °F 43% 29.93 in 10.0 mi East 16.1 mph 24.2 mph N/A   Clear
10:56 AM 27.1 °F 16.4 °F 5.0 °F 39% 29.95 in 10.0 mi East 12.7 mph 21.9 mph N/A   Clear
12:56 PM 27.1 °F 14.5 °F 7.2 °F 43% 29.98 in 10.0 mi East 17.3 mph 20.7 mph N/A   Clear
1:56 PM 28.0 °F 17.5 °F 8.1 °F 43% 29.99 in 10.0 mi East 12.7 mph 20.7 mph N/A   Clear
2:56 PM 27.1 °F 15.9 °F 7.2 °F 43% 29.98 in 10.0 mi East 13.8 mph 20.7 mph N/A   Clear
3:56 PM 28.0 °F 16.5 °F 7.2 °F 41% 29.98 in 10.0 mi East 15.0 mph - N/A   Clear
4:56 PM 27.1 °F 15.9 °F 7.2 °F 43% 29.98 in 10.0 mi East 13.8 mph - N/A   Clear
5:56 PM 27.1 °F 16.9 °F 7.2 °F 43% 29.98 in 10.0 mi East 11.5 mph - N/A   Clear
6:56 PM 26.1 °F 16.8 °F 7.2 °F 45% 29.98 in 10.0 mi East 9.2 mph - N/A   Clear
7:56 PM 25.2 °F 17.3 °F 8.1 °F 48% 29.99 in 10.0 mi ESE 6.9 mph - N/A   Clear
8:56 PM 23.0 °F 15.8 °F 10.0 °F 58% 30.00 in 10.0 mi ESE 5.8 mph - N/A   Clear
9:56 PM 22.1 °F - 13.1 °F 68% 30.01 in 10.0 mi Calm Calm - N/A   Clear
10:56 PM 22.1 °F 17.4 °F 12.0 °F 65% 30.01 in 10.0 mi Variable 3.5 mph - N/A   Clear
11:56 PM 22.1 °F - 12.0 °F 65% 30.02 in 10.0 mi Calm Calm - N/A   Clear